D-SAT (42794 NORAD) Tracking and Keplerian Element Data

This shows tracking and keplerian element data for the satellite.

Feedback or suggestion? Click here.




ElementValue
Catalog42794
NameD-SAT
Epoch Orbit15116
Epoch Day92.0767716
Epoch Year2020
RAAN128.5266
Inclination97.5032
Eccentricity0.0124665
Argument of Perigee263.1531
Mean Anonmoly95.5491
Mean Motion14.91241933
Decay Rate-4E-08
L11 42794U 17036AF 20092.07677160 -.00000004 00000-0 52944-5 0 9994
L22 42794 97.5032 128.5266 0124665 263.1531 95.5491 14.91241933151163

Live tracking and technical data element details for D-SAT (NORAD 42794). D-SAT can be tracked NOW for your location showing map with azimuth and elevation plus other details from your city location.

Track the satellite on the map from your city or location and see movement details for azimuth, elevation, latitude, longitude, range, height, and movement on the map or in text.







IsCatalogInMostPopularTable: catalog: 42794, numindb: 314
Update: records affected: 1



GetName: 42794 D-SAT

Hit Count: updated at: Thu, 02 Apr 2020 03:10:54 GMT